Biloxi, MS

2:40 PM CST on February 20, 2017 (GMT -0600)
Keesler Air Force Base

Weather History for KBIX - April, 2015

Change the Weather History Date:

Monday, April 20, 2015

  Actual Average Record
Temperature  
Mean Temperature 73 °F -  
Max Temperature 83 °F 77 °F 84 °F (2006)
Min Temperature 63 °F 62 °F 42 °F (1953)
Cooling Degree Days 8    
Growing Degree Days 23 (Base 50)    
Moisture  
Dew Point 62 °F    
Average Humidity 69    
Maximum Humidity 98    
Minimum Humidity 43    
Precipitation  
Precipitation 0.00 in - - ()
Sea Level Pressure  
Sea Level Pressure 29.85 in    
Wind  
Wind Speed 5 mph (West)    
Max Wind Speed 15 mph    
Max Gust Speed 16 mph    
Visibility 10 miles    
Events      
Averages and records for this station are not official NWS values.
T = Trace of Precipitation, MM = Missing Value Source: NWS Daily Summary

Daily Weather History Graph

Daily Weather History Graph

Search for Another Location

Airport or City:

Trip Planner

Search our weather history database for the weather conditions in past years. The results will help you decide how hot, cold, wet, or windy it might be!

Date:

Astronomy

Apr. 20, 2015 Rise Set
Actual Time 6:23 AM CDT 7:26 PM CDT
Civil Twilight 5:58 AM CDT 7:51 PM CDT
Nautical Twilight 5:28 AM CDT 8:20 PM CDT
Astronomical Twilight 4:58 AM CDT 8:51 PM CDT
Moon 7:55 AM CDT 9:42 PM CDT
Length of Visible Light 13h 52m
Length of Day
13h 03m
Waxing Crescent, 5% of the Moon is Illuminated
Apr 20
Waxing Crescent
Apr 25
First Quarter
May 3
Full
May 11
Last Quarter
May 17
New

Hourly Weather History & Observations

Time (CDT) Temp. Heat Index Dew Point Humidity Pressure Visibility Wind Dir Wind Speed Gust Speed Precip Events Conditions
12:58 AM 74.1 °F - 66.9 °F 78% 29.80 in 10.0 mi SW 15.0 mph - N/A   Scattered Clouds
1:58 AM 73.9 °F - 67.1 °F 79% 29.81 in 10.0 mi Variable 3.5 mph - N/A   Scattered Clouds
2:58 AM 70.9 °F - 67.6 °F 89% 29.80 in 10.0 mi West 1.2 mph - N/A   Clear
3:58 AM 69.3 °F - 68.4 °F 97% 29.77 in 10.0 mi Calm Calm - N/A   Scattered Clouds
4:58 AM 70.5 °F - 70.0 °F 98% 29.76 in 10.0 mi WSW 6.9 mph - N/A   Clear
5:58 AM 72.0 °F - 71.1 °F 97% 29.79 in 10.0 mi West 5.8 mph - N/A   Clear
6:58 AM 71.4 °F - 70.3 °F 96% 29.80 in 10.0 mi Variable 1.2 mph - N/A   Partly Cloudy
7:58 AM 70.7 °F - 66.9 °F 88% 29.82 in 10.0 mi Variable 2.3 mph - N/A   Scattered Clouds
8:58 AM 71.6 °F - 65.8 °F 82% 29.86 in 10.0 mi Calm Calm - N/A   Partly Cloudy
9:58 AM 74.3 °F - 62.8 °F 67% 29.87 in 10.0 mi West 3.5 mph - N/A   Partly Cloudy
10:58 AM 76.8 °F - 62.2 °F 61% 29.87 in 10.0 mi Variable 3.5 mph - N/A   Clear
11:58 AM 79.5 °F - 60.6 °F 52% 29.87 in 10.0 mi Variable 3.5 mph - N/A   Clear
12:58 PM 79.0 °F - 61.9 °F 56% 29.84 in 10.0 mi WSW 10.4 mph 16.1 mph N/A   Partly Cloudy
1:58 PM 81.1 °F 81.5 °F 59.2 °F 47% 29.83 in 10.0 mi Variable 4.6 mph - N/A   Clear
2:58 PM 80.6 °F 80.8 °F 57.2 °F 45% 29.81 in 10.0 mi Variable 2.3 mph - N/A   Clear
3:58 PM 80.1 °F 80.2 °F 55.4 °F 43% 29.81 in 10.0 mi Variable 3.5 mph - N/A   Clear
4:58 PM 78.8 °F - 55.8 °F 45% 29.83 in 10.0 mi Variable 2.3 mph - N/A   Clear
5:58 PM 77.4 °F - 58.8 °F 53% 29.84 in 10.0 mi Variable 3.5 mph - N/A   Clear
6:58 PM 73.9 °F - 57.0 °F 55% 29.87 in 10.0 mi Variable 4.6 mph - N/A   Clear
7:58 PM 71.6 °F - 56.3 °F 58% 29.90 in 10.0 mi Variable 3.5 mph - N/A   Clear
8:58 PM 68.9 °F - 56.8 °F 65% 29.93 in 10.0 mi Variable 3.5 mph - N/A   Clear
9:58 PM 67.5 °F - 54.9 °F 64% 29.95 in 10.0 mi North 3.5 mph - N/A   Clear
10:58 PM 65.7 °F - 52.9 °F 63% 29.97 in 10.0 mi Variable 3.5 mph - N/A   Clear
11:58 PM 63.7 °F - 52.9 °F 68% 29.97 in 10.0 mi Variable 2.3 mph - N/A   Partly Cloudy